CZ-6A DEB, 60891

Orbit data source: Space-Track

CZ-6A DEB, 60891 is space debris in LEO originally from a launch on Tue, 06 Aug 2024 UTC launched from the Taiyaun Space Center, China (TSC). Debris objects in space refer to the collection of defunct objects orbiting the Earth. Examples of debris include non-operational satellites, rocket bodies, and fragments generated from explosions, collisions, or faulty payload assembly.

Loading next visibility...
Identifier
60891, 2024-140KW
Orbit
LEO
Country
Flag of CNCN / PRC
Related business
Manufacturer
SAST
Mission
Spacecraft
Bus & Motor
Unknown
Mass
Unknown
Launch date (UTC)
2024-08-06 (1 year ago)
Launch vehicle
Unknown
Launch site
Taiyaun Space Center, China (TSC)
Object type
Payload
Rocket body
Debris
Shape & HBR
Unknown shape, 0.1 m
Radar Cross Section
Small (<0.1 m²)

Expand to show TLE details & history
Last TLE update: 2 days ago

TLE from 2 days ago
0 CZ-6A DEB
1 60891U 24140KW  25312.28721649  .00000737  00000-0  39152-3 0  9997
2 60891  89.3368 318.1300 0084976 202.4921 157.2531 14.10812908 62919
Epoch: 2025-11-08T06:53Z
TLE epoch observation values (Epoch: 2025-11-08T06:53:35.504Z)
Latitude
-0.00003°
Longitude
167.01307°
Altitude
916.418 km
Speed
7.365 km/s
True Right ascension
21h 12m 31s
True Declination
0° 00' 00"
Sunlit
Object was in daylight at epoch
Visualization orbit readout
Latitude
Unknown
Longitude
Unknown
Altitude
Unknown
Speed
Unknown
Apparent Right ascension
Unknown
Apparent Declination
Unknown
Sunlit
N/A
Visualization observer readout
Local Sidereal Time
19:39:35
Azimuth
Unknown
Elevation
Unknown
Doppler factor
Unknown
Orbital elements
Apogee altitude
915.006 km
Perigee altitude
792.102 km
Semi-major axis
7,231.691 km
Eccentricity
0.0085
Inclination
89.3368°
RAAN
318.13°
Arg. of periapsis
202.4921°
True anomaly
157.62596°
Mean anomaly
157.2531°
Eccentric anomaly
157.43989°
Mean motion
3.52926 °/min
Orbital period
102 mins
BSTAR
0.00039152
Loading maneuver chart data...
Computing Atmospheric mass density...

Documentation

Showing up to 5 results
|